Year,Month,Day,Hour,Minute,Value (Times are PST for temperature in C)
2016,08,19,00,00,22.60
2016,08,19,00,01,22.50
2016,08,19,00,02,22.40
2016,08,19,00,03,22.40
2016,08,19,00,04,22.40
2016,08,19,00,05,22.40
2016,08,19,00,06,22.30
2016,08,19,00,07,22.30
2016,08,19,00,08,22.30
2016,08,19,00,09,22.20
2016,08,19,00,10,22.10
2016,08,19,00,11,22.10
2016,08,19,00,12,22.00
2016,08,19,00,13,21.90
2016,08,19,00,14,21.80
2016,08,19,00,15,21.80
2016,08,19,00,16,21.80
2016,08,19,00,17,21.70
2016,08,19,00,18,21.70
2016,08,19,00,19,21.70
2016,08,19,00,20,21.70
2016,08,19,00,21,21.70
2016,08,19,00,22,21.70
2016,08,19,00,23,21.70
2016,08,19,00,24,21.70
2016,08,19,00,25,21.70
2016,08,19,00,26,21.70
2016,08,19,00,27,21.70
2016,08,19,00,28,21.60
2016,08,19,00,29,21.60
2016,08,19,00,30,21.60
2016,08,19,00,31,21.50
2016,08,19,00,32,21.50
2016,08,19,00,33,21.50
2016,08,19,00,34,21.50
2016,08,19,00,35,21.50
2016,08,19,00,36,21.60
2016,08,19,00,37,21.60
2016,08,19,00,38,21.70
2016,08,19,00,39,21.70
2016,08,19,00,40,21.80
2016,08,19,00,41,21.80
2016,08,19,00,42,21.80
2016,08,19,00,43,21.80
2016,08,19,00,44,21.80
2016,08,19,00,45,21.80
2016,08,19,00,46,21.80
2016,08,19,00,47,22.00
2016,08,19,00,48,22.10
2016,08,19,00,49,22.20
2016,08,19,00,50,22.20
2016,08,19,00,51,22.30
2016,08,19,00,52,22.50
2016,08,19,00,53,22.60
2016,08,19,00,54,22.70
2016,08,19,00,55,22.80
2016,08,19,00,56,22.90
2016,08,19,00,57,23.10
2016,08,19,00,58,23.40
2016,08,19,00,59,23.60
2016,08,19,01,00,23.90
2016,08,19,01,01,24.10
2016,08,19,01,02,24.40
2016,08,19,01,03,24.70
2016,08,19,01,04,24.90
2016,08,19,01,05,25.00
2016,08,19,01,06,25.20
2016,08,19,01,07,25.30
2016,08,19,01,08,25.50
2016,08,19,01,09,25.60
2016,08,19,01,10,25.70
2016,08,19,01,11,25.70
2016,08,19,01,12,25.80
2016,08,19,01,13,25.90
2016,08,19,01,14,26.00
2016,08,19,01,15,26.00
2016,08,19,01,16,26.10
2016,08,19,01,17,26.20
2016,08,19,01,18,26.30
2016,08,19,01,19,26.30
2016,08,19,01,20,26.30
2016,08,19,01,21,26.30
2016,08,19,01,22,26.30
2016,08,19,01,23,26.40
2016,08,19,01,24,26.40
2016,08,19,01,25,26.40
2016,08,19,01,26,26.40
2016,08,19,01,27,26.40
2016,08,19,01,28,26.50
2016,08,19,01,29,26.50
2016,08,19,01,30,26.60
2016,08,19,01,31,26.60
2016,08,19,01,32,26.60
2016,08,19,01,33,26.60
2016,08,19,01,34,26.60
2016,08,19,01,35,26.60
2016,08,19,01,36,26.60
2016,08,19,01,37,26.60
2016,08,19,01,38,26.60
2016,08,19,01,39,26.60
2016,08,19,01,40,26.60
2016,08,19,01,41,26.60
2016,08,19,01,42,26.60
2016,08,19,01,43,26.60
2016,08,19,01,44,26.60
2016,08,19,01,45,26.60
2016,08,19,01,46,26.60
2016,08,19,01,47,26.60
2016,08,19,01,48,26.60
2016,08,19,01,49,26.60
2016,08,19,01,50,26.60
2016,08,19,01,51,26.60
2016,08,19,01,52,26.60
2016,08,19,01,53,26.60
2016,08,19,01,54,26.60
2016,08,19,01,55,26.60
2016,08,19,01,56,26.60
2016,08,19,01,57,26.50
2016,08,19,01,58,26.50
2016,08,19,01,59,26.50
2016,08,19,02,00,26.40
2016,08,19,02,01,26.40
2016,08,19,02,02,26.40
2016,08,19,02,03,26.40
2016,08,19,02,04,26.40
2016,08,19,02,05,26.40
2016,08,19,02,06,26.40
2016,08,19,02,07,26.40
2016,08,19,02,08,26.40
2016,08,19,02,09,26.40
2016,08,19,02,10,26.30
2016,08,19,02,11,26.30
2016,08,19,02,12,26.30
2016,08,19,02,13,26.30
2016,08,19,02,14,26.30
2016,08,19,02,15,26.20
2016,08,19,02,16,26.20
2016,08,19,02,17,26.20
2016,08,19,02,18,26.20
2016,08,19,02,19,26.10
2016,08,19,02,20,26.10
2016,08,19,02,21,26.10
2016,08,19,02,22,26.00
2016,08,19,02,23,26.00
2016,08,19,02,24,26.00
2016,08,19,02,25,25.90
2016,08,19,02,26,25.90
2016,08,19,02,27,25.90
2016,08,19,02,28,25.90
2016,08,19,02,29,25.90
2016,08,19,02,30,25.80
2016,08,19,02,31,25.80
2016,08,19,02,32,25.80
2016,08,19,02,33,25.80
2016,08,19,02,34,25.80
2016,08,19,02,35,25.80
2016,08,19,02,36,25.80
2016,08,19,02,37,25.80
2016,08,19,02,38,25.80
2016,08,19,02,39,25.80
2016,08,19,02,40,25.80
2016,08,19,02,41,25.80
2016,08,19,02,42,25.80
2016,08,19,02,43,25.80
2016,08,19,02,44,25.80
2016,08,19,02,45,25.70
2016,08,19,02,46,25.70
2016,08,19,02,47,25.70
2016,08,19,02,48,25.70
2016,08,19,02,49,25.70
2016,08,19,02,50,25.70
2016,08,19,02,51,25.70
2016,08,19,02,52,25.60
2016,08,19,02,53,25.60
2016,08,19,02,54,25.60
2016,08,19,02,55,25.60
2016,08,19,02,56,25.60
2016,08,19,02,57,25.60
2016,08,19,02,58,25.70
2016,08,19,02,59,25.80
2016,08,19,03,00,25.80
2016,08,19,03,01,25.80
2016,08,19,03,02,25.80
2016,08,19,03,03,25.80
2016,08,19,03,04,25.80
2016,08,19,03,05,25.80
2016,08,19,03,06,25.80
2016,08,19,03,07,25.80
2016,08,19,03,08,25.80
2016,08,19,03,09,25.80
2016,08,19,03,10,25.80
2016,08,19,03,11,25.80
2016,08,19,03,12,25.80
2016,08,19,03,13,25.80
2016,08,19,03,14,25.80
2016,08,19,03,15,25.80
2016,08,19,03,16,25.80
2016,08,19,03,17,25.80
2016,08,19,03,18,25.80
2016,08,19,03,19,25.80
2016,08,19,03,20,25.80
2016,08,19,03,21,25.80
2016,08,19,03,22,25.70
2016,08,19,03,23,25.70
2016,08,19,03,24,25.70
2016,08,19,03,25,25.70
2016,08,19,03,26,25.60
2016,08,19,03,27,25.60
2016,08,19,03,28,25.60
2016,08,19,03,29,25.60
2016,08,19,03,30,25.60
2016,08,19,03,31,25.50
2016,08,19,03,32,25.50
2016,08,19,03,33,25.40
2016,08,19,03,34,25.30
2016,08,19,03,35,25.30
2016,08,19,03,36,25.20
2016,08,19,03,37,25.10
2016,08,19,03,38,25.00
2016,08,19,03,39,24.90
2016,08,19,03,40,24.80
2016,08,19,03,41,24.70
2016,08,19,03,42,24.60
2016,08,19,03,43,24.50
2016,08,19,03,44,24.40
2016,08,19,03,45,24.30
2016,08,19,03,46,24.20
2016,08,19,03,47,24.10
2016,08,19,03,48,24.00
2016,08,19,03,49,24.00
2016,08,19,03,50,24.00
2016,08,19,03,51,24.00
2016,08,19,03,52,24.00
2016,08,19,03,53,24.10
2016,08,19,03,54,24.10
2016,08,19,03,55,24.10
2016,08,19,03,56,24.20
2016,08,19,03,57,24.20
2016,08,19,03,58,24.20
2016,08,19,03,59,24.30
2016,08,19,04,00,24.30
2016,08,19,04,01,24.40
2016,08,19,04,02,24.40
2016,08,19,04,03,24.50
2016,08,19,04,04,24.50
2016,08,19,04,05,24.60
2016,08,19,04,06,24.60
2016,08,19,04,07,24.70
2016,08,19,04,08,24.70
2016,08,19,04,09,24.80
2016,08,19,04,10,24.90
2016,08,19,04,11,24.90
2016,08,19,04,12,24.90
2016,08,19,04,13,24.90
2016,08,19,04,14,24.90
2016,08,19,04,15,24.90
2016,08,19,04,16,24.90
2016,08,19,04,17,24.90
2016,08,19,04,18,24.90
2016,08,19,04,19,24.90
2016,08,19,04,20,24.90
2016,08,19,04,21,24.90
2016,08,19,04,22,24.90
2016,08,19,04,23,25.00
2016,08,19,04,24,25.00
2016,08,19,04,25,25.00
2016,08,19,04,26,25.00
2016,08,19,04,27,25.00
2016,08,19,04,28,25.00
2016,08,19,04,29,25.00
2016,08,19,04,30,25.00
2016,08,19,04,31,24.90
2016,08,19,04,32,24.90
2016,08,19,04,33,24.90
2016,08,19,04,34,24.90
2016,08,19,04,35,24.90
2016,08,19,04,36,24.80
2016,08,19,04,37,24.80
2016,08,19,04,38,24.70
2016,08,19,04,39,24.70
2016,08,19,04,40,24.70
2016,08,19,04,41,24.60
2016,08,19,04,42,24.60
2016,08,19,04,43,24.50
2016,08,19,04,44,24.50
2016,08,19,04,45,24.40
2016,08,19,04,46,24.40
2016,08,19,04,47,24.40
2016,08,19,04,48,24.40
2016,08,19,04,49,24.40
2016,08,19,04,50,24.50
2016,08,19,04,51,24.60
2016,08,19,04,52,24.60
2016,08,19,04,53,24.70
2016,08,19,04,54,24.80
2016,08,19,04,55,24.90
2016,08,19,04,56,24.90
2016,08,19,04,57,25.00
2016,08,19,04,58,25.00
2016,08,19,04,59,25.10
2016,08,19,05,00,25.10
2016,08,19,05,01,25.10
2016,08,19,05,02,25.10
2016,08,19,05,03,25.10
2016,08,19,05,04,25.10
2016,08,19,05,05,25.10
2016,08,19,05,06,25.20
2016,08,19,05,07,25.10
2016,08,19,05,08,25.20
2016,08,19,05,09,25.20
2016,08,19,05,10,25.20
2016,08,19,05,11,25.20
2016,08,19,05,12,25.10
2016,08,19,05,13,25.10
2016,08,19,05,14,25.10
2016,08,19,05,15,25.10
2016,08,19,05,16,25.10
2016,08,19,05,17,25.10
2016,08,19,05,18,25.20
2016,08,19,05,19,25.20
2016,08,19,05,20,25.20
2016,08,19,05,21,25.20
2016,08,19,05,22,25.20
2016,08,19,05,23,25.20
2016,08,19,05,24,25.10
2016,08,19,05,25,25.10
2016,08,19,05,26,25.10
2016,08,19,05,27,25.10
2016,08,19,05,28,25.10
2016,08,19,05,29,25.10
2016,08,19,05,30,25.00
2016,08,19,05,31,25.00
2016,08,19,05,32,24.90
2016,08,19,05,33,24.90
2016,08,19,05,34,24.90
2016,08,19,05,35,24.90
2016,08,19,05,36,24.90
2016,08,19,05,37,24.80
2016,08,19,05,38,24.80
2016,08,19,05,39,24.80
2016,08,19,05,40,24.80
2016,08,19,05,41,24.70
2016,08,19,05,42,24.70
2016,08,19,05,43,24.70
2016,08,19,05,44,24.70
2016,08,19,05,45,24.60
2016,08,19,05,46,24.60
2016,08,19,05,47,24.60
2016,08,19,05,48,24.60
2016,08,19,05,49,24.60
2016,08,19,05,50,24.60
2016,08,19,05,51,24.60
2016,08,19,05,52,24.60
2016,08,19,05,53,24.50
2016,08,19,05,54,24.40
2016,08,19,05,55,24.30
2016,08,19,05,56,24.10
2016,08,19,05,57,23.80
2016,08,19,05,58,23.50
2016,08,19,05,59,23.20
2016,08,19,06,00,23.00
2016,08,19,06,01,22.90
2016,08,19,06,02,22.80
2016,08,19,06,03,22.70
2016,08,19,06,04,22.50
2016,08,19,06,05,22.40
2016,08,19,06,06,22.30
2016,08,19,06,07,22.20
2016,08,19,06,08,22.10
2016,08,19,06,09,22.10
2016,08,19,06,10,22.00
2016,08,19,06,11,21.90
2016,08,19,06,12,21.90
2016,08,19,06,13,22.00
2016,08,19,06,14,22.10
2016,08,19,06,15,22.10
2016,08,19,06,16,22.20
2016,08,19,06,17,22.30
2016,08,19,06,18,22.30
2016,08,19,06,19,22.30
2016,08,19,06,20,22.40
2016,08,19,06,21,22.40
2016,08,19,06,22,22.30
2016,08,19,06,23,22.30
2016,08,19,06,24,22.20
2016,08,19,06,25,22.20
2016,08,19,06,26,22.10
2016,08,19,06,27,22.00
2016,08,19,06,28,22.00
2016,08,19,06,29,21.90
2016,08,19,06,30,21.80
2016,08,19,06,31,21.80
2016,08,19,06,32,21.80
2016,08,19,06,33,21.70
2016,08,19,06,34,21.70
2016,08,19,06,35,21.60
2016,08,19,06,36,21.50
2016,08,19,06,37,21.50
2016,08,19,06,38,21.40
2016,08,19,06,39,21.30
2016,08,19,06,40,21.30
2016,08,19,06,41,21.20
2016,08,19,06,42,21.20
2016,08,19,06,43,21.10
2016,08,19,06,44,21.10
2016,08,19,06,45,21.00
2016,08,19,06,46,21.00
2016,08,19,06,47,21.00
2016,08,19,06,48,20.90
2016,08,19,06,49,20.90
2016,08,19,06,50,20.90
2016,08,19,06,51,20.90
2016,08,19,06,52,20.90
2016,08,19,06,53,20.80
2016,08,19,06,54,20.80
2016,08,19,06,55,20.80
2016,08,19,06,56,20.90
2016,08,19,06,57,20.90
2016,08,19,06,58,21.00
2016,08,19,06,59,21.00
2016,08,19,07,00,21.10
2016,08,19,07,01,21.10
2016,08,19,07,02,21.20
2016,08,19,07,03,21.30
2016,08,19,07,04,21.50
2016,08,19,07,05,21.60
2016,08,19,07,06,21.60
2016,08,19,07,07,21.70
2016,08,19,07,08,21.80
2016,08,19,07,09,21.80
2016,08,19,07,10,21.80
2016,08,19,07,11,21.80
2016,08,19,07,12,21.80
2016,08,19,07,13,21.80
2016,08,19,07,14,21.80
2016,08,19,07,15,21.90
2016,08,19,07,16,21.90
2016,08,19,07,17,21.90
2016,08,19,07,18,22.00
2016,08,19,07,19,22.00
2016,08,19,07,20,22.10
2016,08,19,07,21,22.10
2016,08,19,07,22,22.20
2016,08,19,07,23,22.20
2016,08,19,07,24,22.30
2016,08,19,07,25,22.30
2016,08,19,07,26,22.30
2016,08,19,07,27,22.30
2016,08,19,07,28,22.30
2016,08,19,07,29,22.30
2016,08,19,07,30,22.40
2016,08,19,07,31,22.50
2016,08,19,07,32,22.50
2016,08,19,07,33,22.50
2016,08,19,07,34,22.60
2016,08,19,07,35,22.60
2016,08,19,07,36,22.60
2016,08,19,07,37,22.60
2016,08,19,07,38,22.60
2016,08,19,07,39,22.60
2016,08,19,07,40,22.60
2016,08,19,07,41,22.60
2016,08,19,07,42,22.70
2016,08,19,07,43,22.70
2016,08,19,07,44,22.70
2016,08,19,07,45,22.70
2016,08,19,07,46,22.70
2016,08,19,07,47,22.70
2016,08,19,07,48,22.60
2016,08,19,07,49,22.60
2016,08,19,07,50,22.70
2016,08,19,07,51,22.70
2016,08,19,07,52,22.70
2016,08,19,07,53,22.70
2016,08,19,07,54,22.80
2016,08,19,07,55,22.90
2016,08,19,07,56,22.90
2016,08,19,07,57,23.00
2016,08,19,07,58,23.10
2016,08,19,07,59,23.10
2016,08,19,08,00,23.10
2016,08,19,08,01,23.20
2016,08,19,08,02,23.30
2016,08,19,08,03,23.40
2016,08,19,08,04,23.40
2016,08,19,08,05,23.50
2016,08,19,08,06,23.60
2016,08,19,08,07,23.60
2016,08,19,08,08,23.70
2016,08,19,08,09,23.70
2016,08,19,08,10,23.70
2016,08,19,08,11,23.80
2016,08,19,08,12,23.80
2016,08,19,08,13,23.90
2016,08,19,08,14,24.10
2016,08,19,08,15,24.20
2016,08,19,08,16,24.30
2016,08,19,08,17,24.40
2016,08,19,08,18,24.40
2016,08,19,08,19,24.40
2016,08,19,08,20,24.40
2016,08,19,08,21,24.40
2016,08,19,08,22,24.50
2016,08,19,08,23,24.50
2016,08,19,08,24,24.50
2016,08,19,08,25,24.50
2016,08,19,08,26,24.40
2016,08,19,08,27,24.40
2016,08,19,08,28,24.40
2016,08,19,08,29,24.40
2016,08,19,08,30,24.40
2016,08,19,08,31,24.50
2016,08,19,08,32,24.50
2016,08,19,08,33,24.60
2016,08,19,08,34,24.70
2016,08,19,08,35,24.70
2016,08,19,08,36,24.80
2016,08,19,08,37,24.90
2016,08,19,08,38,24.90
2016,08,19,08,39,25.00
2016,08,19,08,40,25.10
2016,08,19,08,41,25.10
2016,08,19,08,42,25.10
2016,08,19,08,43,25.10
2016,08,19,08,44,25.10
2016,08,19,08,45,25.20
2016,08,19,08,46,25.20
2016,08,19,08,47,25.20
2016,08,19,08,48,25.30
2016,08,19,08,49,25.30
2016,08,19,08,50,25.40
2016,08,19,08,51,25.40
2016,08,19,08,52,25.40
2016,08,19,08,53,25.40
2016,08,19,08,54,25.40
2016,08,19,08,55,25.40
2016,08,19,08,56,25.40
2016,08,19,08,57,25.40
2016,08,19,08,58,25.40
2016,08,19,08,59,25.40
2016,08,19,09,00,25.40
2016,08,19,09,01,25.50
2016,08,19,09,02,25.50
2016,08,19,09,03,25.60
2016,08,19,09,04,25.70
2016,08,19,09,05,25.80
2016,08,19,09,06,25.90
2016,08,19,09,07,25.90
2016,08,19,09,08,25.90
2016,08,19,09,09,26.10
2016,08,19,09,10,26.10
2016,08,19,09,11,26.20
2016,08,19,09,12,26.20
2016,08,19,09,13,26.20
2016,08,19,09,14,26.20
2016,08,19,09,15,26.20
2016,08,19,09,16,26.20
2016,08,19,09,17,26.20
2016,08,19,09,18,26.20
2016,08,19,09,19,26.20
2016,08,19,09,20,26.30
2016,08,19,09,21,26.30
2016,08,19,09,22,26.40
2016,08,19,09,23,26.40
2016,08,19,09,24,26.40
2016,08,19,09,25,26.50
2016,08,19,09,26,26.50
2016,08,19,09,27,26.50
2016,08,19,09,28,26.60
2016,08,19,09,29,26.60
2016,08,19,09,30,26.60
2016,08,19,09,31,26.70
2016,08,19,09,32,26.80
2016,08,19,09,33,26.90
2016,08,19,09,34,26.90
2016,08,19,09,35,27.00
2016,08,19,09,36,27.20
2016,08,19,09,37,27.30
2016,08,19,09,38,27.40
2016,08,19,09,39,27.40
2016,08,19,09,40,27.50
2016,08,19,09,41,27.60
2016,08,19,09,42,27.60
2016,08,19,09,43,27.60
2016,08,19,09,44,27.60
2016,08,19,09,45,27.60
2016,08,19,09,46,27.70
2016,08,19,09,47,27.70
2016,08,19,09,48,27.70
2016,08,19,09,49,27.80
2016,08,19,09,50,27.90
2016,08,19,09,51,28.00
2016,08,19,09,52,28.00
2016,08,19,09,53,28.00
2016,08,19,09,54,28.00
2016,08,19,09,55,28.00
2016,08,19,09,56,28.00
2016,08,19,09,57,28.00
2016,08,19,09,58,28.10
2016,08,19,09,59,28.00
2016,08,19,10,00,28.00
2016,08,19,10,01,27.90
2016,08,19,10,02,27.90
2016,08,19,10,03,27.90
2016,08,19,10,04,27.80
2016,08,19,10,05,27.80
2016,08,19,10,06,27.80
2016,08,19,10,07,27.80
2016,08,19,10,08,27.80
2016,08,19,10,09,27.80
2016,08,19,10,10,27.90
2016,08,19,10,11,27.90
2016,08,19,10,12,28.00
2016,08,19,10,13,28.00
2016,08,19,10,14,28.00
2016,08,19,10,15,28.10
2016,08,19,10,16,28.10
2016,08,19,10,17,28.20
2016,08,19,10,18,28.20
2016,08,19,10,19,28.20
2016,08,19,10,20,28.20
2016,08,19,10,21,28.20
2016,08,19,10,22,28.30
2016,08,19,10,23,28.30
2016,08,19,10,24,28.30
2016,08,19,10,25,28.30
2016,08,19,10,26,28.30
2016,08,19,10,27,28.30
2016,08,19,10,28,28.30
2016,08,19,10,29,28.30
2016,08,19,10,30,28.30
2016,08,19,10,31,28.30
2016,08,19,10,32,28.20
2016,08,19,10,33,28.10
2016,08,19,10,34,28.10
2016,08,19,10,35,28.10
2016,08,19,10,36,28.20
2016,08,19,10,37,28.10
2016,08,19,10,38,28.10
2016,08,19,10,39,28.00
2016,08,19,10,40,28.00
2016,08,19,10,41,28.10
2016,08,19,10,42,28.20
2016,08,19,10,43,28.30
2016,08,19,10,44,28.30
2016,08,19,10,45,28.30
2016,08,19,10,46,28.30
2016,08,19,10,47,28.30
2016,08,19,10,48,28.20
2016,08,19,10,49,28.10
2016,08,19,10,50,28.10
2016,08,19,10,51,28.10
2016,08,19,10,52,28.10
2016,08,19,10,53,28.00
2016,08,19,10,54,27.90
2016,08,19,10,55,27.80
2016,08,19,10,56,27.80
2016,08,19,10,57,27.80
2016,08,19,10,58,27.80
2016,08,19,10,59,27.90
2016,08,19,11,00,28.10
2016,08,19,11,01,28.20
2016,08,19,11,02,28.30
2016,08,19,11,03,28.40
2016,08,19,11,04,28.50
2016,08,19,11,05,28.60
2016,08,19,11,06,28.60
2016,08,19,11,07,28.50
2016,08,19,11,08,28.40
2016,08,19,11,09,28.20
2016,08,19,11,10,28.00
2016,08,19,11,11,27.80
2016,08,19,11,12,27.60
2016,08,19,11,13,27.60
2016,08,19,11,14,27.60
2016,08,19,11,15,27.50
2016,08,19,11,16,27.30
2016,08,19,11,17,27.30
2016,08,19,11,18,27.20
2016,08,19,11,19,27.10
2016,08,19,11,20,27.10
2016,08,19,11,21,27.00
2016,08,19,11,22,27.00
2016,08,19,11,23,27.00
2016,08,19,11,24,27.10
2016,08,19,11,25,27.10
2016,08,19,11,26,27.20
2016,08,19,11,27,27.10
2016,08,19,11,28,27.10
2016,08,19,11,29,27.20
2016,08,19,11,30,27.20
2016,08,19,11,31,27.20
2016,08,19,11,32,27.30
2016,08,19,11,33,27.30
2016,08,19,11,34,27.20
2016,08,19,11,35,27.20
2016,08,19,11,36,27.20
2016,08,19,11,37,27.30
2016,08,19,11,38,27.40
2016,08,19,11,39,27.40
2016,08,19,11,40,27.50
2016,08,19,11,41,27.50
2016,08,19,11,42,27.60
2016,08,19,11,43,27.70
2016,08,19,11,44,27.90
2016,08,19,11,45,28.00
2016,08,19,11,46,28.10
2016,08,19,11,47,28.20
2016,08,19,11,48,28.30
2016,08,19,11,49,28.40
2016,08,19,11,50,28.40
2016,08,19,11,51,28.50
2016,08,19,11,52,28.60
2016,08,19,11,53,28.50
2016,08,19,11,54,28.40
2016,08,19,11,55,28.40
2016,08,19,11,56,28.30
2016,08,19,11,57,28.20
2016,08,19,11,58,28.00
2016,08,19,11,59,27.80
2016,08,19,12,00,27.80
2016,08,19,12,01,27.70
2016,08,19,12,02,27.80
2016,08,19,12,03,27.80
2016,08,19,12,04,27.80
2016,08,19,12,05,27.90
2016,08,19,12,06,27.90
2016,08,19,12,07,28.00
2016,08,19,12,08,28.10
2016,08,19,12,09,28.20
2016,08,19,12,10,28.10
2016,08,19,12,11,28.10
2016,08,19,12,12,28.10
2016,08,19,12,13,28.00
2016,08,19,12,14,27.90
2016,08,19,12,15,27.90
2016,08,19,12,16,28.00
2016,08,19,12,17,28.00
2016,08,19,12,18,28.00
2016,08,19,12,19,28.00
2016,08,19,12,20,28.10
2016,08,19,12,21,28.20
2016,08,19,12,22,28.30
2016,08,19,12,23,28.40
2016,08,19,12,24,28.50
2016,08,19,12,25,28.60
2016,08,19,12,26,28.70
2016,08,19,12,27,28.80
2016,08,19,12,28,28.80
2016,08,19,12,29,28.90
2016,08,19,12,30,29.00
2016,08,19,12,31,29.00
2016,08,19,12,32,29.00
2016,08,19,12,33,29.00
2016,08,19,12,34,29.00
2016,08,19,12,35,29.10
2016,08,19,12,36,29.20
2016,08,19,12,37,29.30
2016,08,19,12,38,29.30
2016,08,19,12,39,29.30
2016,08,19,12,40,29.30
2016,08,19,12,41,29.30
2016,08,19,12,42,29.30
2016,08,19,12,43,29.30
2016,08,19,12,44,29.30
2016,08,19,12,45,29.30
2016,08,19,12,46,29.30
2016,08,19,12,47,29.30
2016,08,19,12,48,29.20
2016,08,19,12,49,29.20
2016,08,19,12,50,29.10
2016,08,19,12,51,29.00
2016,08,19,12,52,29.00
2016,08,19,12,53,28.90
2016,08,19,12,54,28.90
2016,08,19,12,55,28.90
2016,08,19,12,56,29.00
2016,08,19,12,57,29.00
2016,08,19,12,58,29.00
2016,08,19,12,59,29.00
2016,08,19,13,00,28.90
2016,08,19,13,01,28.90
2016,08,19,13,02,28.90
2016,08,19,13,03,28.80
2016,08,19,13,04,28.90
2016,08,19,13,05,28.90
2016,08,19,13,06,29.00
2016,08,19,13,07,29.20
2016,08,19,13,08,29.30
2016,08,19,13,09,29.40
2016,08,19,13,10,29.50
2016,08,19,13,11,29.50
2016,08,19,13,12,29.60
2016,08,19,13,13,29.60
2016,08,19,13,14,29.60
2016,08,19,13,15,29.60
2016,08,19,13,16,29.60
2016,08,19,13,17,29.70
2016,08,19,13,18,29.70
2016,08,19,13,19,29.80
2016,08,19,13,20,29.80
2016,08,19,13,21,29.80
2016,08,19,13,22,29.80
2016,08,19,13,23,29.70
2016,08,19,13,24,29.70
2016,08,19,13,25,29.60
2016,08,19,13,26,29.60
2016,08,19,13,27,29.50
2016,08,19,13,28,29.40
2016,08,19,13,29,29.40
2016,08,19,13,30,29.40
2016,08,19,13,31,29.40
2016,08,19,13,32,29.50
2016,08,19,13,33,29.50
2016,08,19,13,34,29.50
2016,08,19,13,35,29.40
2016,08,19,13,36,29.30
2016,08,19,13,37,29.30
2016,08,19,13,38,29.30
2016,08,19,13,39,29.30
2016,08,19,13,40,29.30
2016,08,19,13,41,29.30
2016,08,19,13,42,29.30
2016,08,19,13,43,29.20
2016,08,19,13,44,29.20
2016,08,19,13,45,29.30
2016,08,19,13,46,29.40
2016,08,19,13,47,29.50
2016,08,19,13,48,29.70
2016,08,19,13,49,29.70
2016,08,19,13,50,29.60
2016,08,19,13,51,29.60
2016,08,19,13,52,29.50
2016,08,19,13,53,29.50
2016,08,19,13,54,29.60
2016,08,19,13,55,29.70
2016,08,19,13,56,29.80
2016,08,19,13,57,29.90
2016,08,19,13,58,30.00
2016,08,19,13,59,30.10
2016,08,19,14,00,30.20
2016,08,19,14,01,30.20
2016,08,19,14,02,30.20
2016,08,19,14,03,30.20
2016,08,19,14,04,30.30
2016,08,19,14,05,30.30
2016,08,19,14,06,30.30
2016,08,19,14,07,30.30
2016,08,19,14,08,30.30
2016,08,19,14,09,30.40
2016,08,19,14,10,30.50
2016,08,19,14,11,30.50
2016,08,19,14,12,30.50
2016,08,19,14,13,30.40
2016,08,19,14,14,30.50
2016,08,19,14,15,30.50
2016,08,19,14,16,30.60
2016,08,19,14,17,30.60
2016,08,19,14,18,30.50
2016,08,19,14,19,30.50
2016,08,19,14,20,30.40
2016,08,19,14,21,30.50
2016,08,19,14,22,30.50
2016,08,19,14,23,30.60
2016,08,19,14,24,30.70
2016,08,19,14,25,30.90
2016,08,19,14,26,31.00
2016,08,19,14,27,31.10
2016,08,19,14,28,31.20
2016,08,19,14,29,31.30
2016,08,19,14,30,31.40
2016,08,19,14,31,31.40
2016,08,19,14,32,31.40
2016,08,19,14,33,31.30
2016,08,19,14,34,31.20
2016,08,19,14,35,31.10
2016,08,19,14,36,31.10
2016,08,19,14,37,31.20
2016,08,19,14,38,31.20
2016,08,19,14,39,31.20
2016,08,19,14,40,31.30
2016,08,19,14,41,31.30
2016,08,19,14,42,31.40
2016,08,19,14,43,31.50
2016,08,19,14,44,31.60
2016,08,19,14,45,31.60
2016,08,19,14,46,31.60
2016,08,19,14,47,31.60
2016,08,19,14,48,31.60
2016,08,19,14,49,31.50
2016,08,19,14,50,31.40
2016,08,19,14,51,31.30
2016,08,19,14,52,31.30
2016,08,19,14,53,31.30
2016,08,19,14,54,31.30
2016,08,19,14,55,31.30
2016,08,19,14,56,31.30
2016,08,19,14,57,31.30
2016,08,19,14,58,31.20
2016,08,19,14,59,31.30
2016,08,19,15,00,31.30
2016,08,19,15,01,31.20
2016,08,19,15,02,31.30
2016,08,19,15,03,31.30
2016,08,19,15,04,31.30
2016,08,19,15,05,31.20
2016,08,19,15,06,31.10
2016,08,19,15,07,30.90
2016,08,19,15,08,30.90
2016,08,19,15,09,30.80
2016,08,19,15,10,30.80
2016,08,19,15,11,30.90
2016,08,19,15,12,31.00
2016,08,19,15,13,31.10
2016,08,19,15,14,31.10
2016,08,19,15,15,31.10
2016,08,19,15,16,31.20
2016,08,19,15,17,31.30
2016,08,19,15,18,31.30
2016,08,19,15,19,31.30
2016,08,19,15,20,31.30
2016,08,19,15,21,31.30
2016,08,19,15,22,31.40
2016,08,19,15,23,31.50
2016,08,19,15,24,31.60
2016,08,19,15,25,31.60
2016,08,19,15,26,31.70
2016,08,19,15,27,31.70
2016,08,19,15,28,31.80
2016,08,19,15,29,31.70
2016,08,19,15,30,31.80
2016,08,19,15,31,31.80
2016,08,19,15,32,31.80
2016,08,19,15,33,31.80
2016,08,19,15,34,31.90
2016,08,19,15,35,31.90
2016,08,19,15,36,31.90
2016,08,19,15,37,31.90
2016,08,19,15,38,32.00
2016,08,19,15,39,31.90
2016,08,19,15,40,32.00
2016,08,19,15,41,32.00
2016,08,19,15,42,32.10
2016,08,19,15,43,32.10
2016,08,19,15,44,32.00
2016,08,19,15,45,31.70
2016,08,19,15,46,31.50
2016,08,19,15,47,31.40
2016,08,19,15,48,31.40
2016,08,19,15,49,31.30
2016,08,19,15,50,31.30
2016,08,19,15,51,31.30
2016,08,19,15,52,31.30
2016,08,19,15,53,31.40
2016,08,19,15,54,31.40
2016,08,19,15,55,31.50
2016,08,19,15,56,31.50
2016,08,19,15,57,31.50
2016,08,19,15,58,31.50
2016,08,19,15,59,31.40
2016,08,19,16,00,31.30
2016,08,19,16,01,31.20
2016,08,19,16,02,31.00
2016,08,19,16,03,31.00
2016,08,19,16,04,31.00
2016,08,19,16,05,30.90
2016,08,19,16,06,30.70
2016,08,19,16,07,30.60
2016,08,19,16,08,30.60
2016,08,19,16,09,30.70
2016,08,19,16,10,30.80
2016,08,19,16,11,30.90
2016,08,19,16,12,30.90
2016,08,19,16,13,30.80
2016,08,19,16,14,30.80
2016,08,19,16,15,30.80
2016,08,19,16,16,30.60
2016,08,19,16,17,30.40
2016,08,19,16,18,30.40
2016,08,19,16,19,30.40
2016,08,19,16,20,30.40
2016,08,19,16,21,30.20
2016,08,19,16,22,30.00
2016,08,19,16,23,29.90
2016,08,19,16,24,29.80
2016,08,19,16,25,29.80
2016,08,19,16,26,29.80
2016,08,19,16,27,29.80
2016,08,19,16,28,29.90
2016,08,19,16,29,29.90
2016,08,19,16,30,30.00
2016,08,19,16,31,30.00
2016,08,19,16,32,30.10
2016,08,19,16,33,30.10
2016,08,19,16,34,30.30
2016,08,19,16,35,30.40
2016,08,19,16,36,30.40
2016,08,19,16,37,30.30
2016,08,19,16,38,30.20
2016,08,19,16,39,30.20
2016,08,19,16,40,30.30
2016,08,19,16,41,30.40
2016,08,19,16,42,30.40
2016,08,19,16,43,30.40
2016,08,19,16,44,30.40
2016,08,19,16,45,30.50
2016,08,19,16,46,30.50
2016,08,19,16,47,30.60
2016,08,19,16,48,30.60
2016,08,19,16,49,30.60
2016,08,19,16,50,30.70
2016,08,19,16,51,30.80
2016,08,19,16,52,30.90
2016,08,19,16,53,31.00
2016,08,19,16,54,31.10
2016,08,19,16,55,31.20
2016,08,19,16,56,31.30
2016,08,19,16,57,31.30
2016,08,19,16,58,31.40
2016,08,19,16,59,31.30
2016,08,19,17,00,31.20
2016,08,19,17,01,31.00
2016,08,19,17,02,31.00
2016,08,19,17,03,30.90
2016,08,19,17,04,30.90
2016,08,19,17,05,30.90
2016,08,19,17,06,30.90
2016,08,19,17,07,30.90
2016,08,19,17,08,30.90
2016,08,19,17,09,30.90
2016,08,19,17,10,31.00
2016,08,19,17,11,31.00
2016,08,19,17,12,31.10
2016,08,19,17,13,31.10
2016,08,19,17,14,31.10
2016,08,19,17,15,31.10
2016,08,19,17,16,31.10
2016,08,19,17,17,31.00
2016,08,19,17,18,30.90
2016,08,19,17,19,30.70